Regional Weather Roundup
Issued by NWS

Home | Current Version | Previous Version | Text Only | Print | Product List | Glossary Off
Versions: 1 2 3 4 5 6 7 8 9 10 11 12 13 14 15 16 17 18 19 20 21 22 23 24 25 26 27 28 29 30 31 32 33 34 35 36 37 38 39 40 41 42 43 44 45 46 47 48 49 50

000
ASUS43 KOAX 251902
RWRNE

WEATHER ROUNDUP FOR NEBRASKA
NATIONAL WEATHER SERVICE OMAHA NE
100 PM CST SAT FEB 25 2017

NOTES: SATELLITE DATA IS BEING USED TO AUGMENT CLOUD COVER ABOVE
       12000 FEET.
       "FAIR" INDICATES FEW OR NO CLOUDS BELOW 12,000 FEET WITH NO
       SIGNIFICANT WEATHER AND/OR OBSTRUCTIONS TO VISIBILITY.

  * THESE STATIONS DO NOT REPORT WEATHER SUCH AS RAIN...SNOW OR FOG.

NEZ001>004-019>022-054>056-252000-
NEBRASKA PANHANDLE

CITY           SKY/WX    TMP DP  RH WIND       PRES   REMARKS
SCOTTSBLUFF    SUNNY     21  10  62 NW8       29.92F WCI  11
ALLIANCE       SUNNY     22  14  71 W17       29.88F WCI   8
CHADRON        CLOUDY    27  18  69 W18       29.90F WCI  14
KIMBALL        SUNNY     27  13  55 NW13      29.89F WCI  16
SIDNEY         SUNNY     28  12  51 NW16      29.91F WCI  16
$$

NEZ057>060-069>072-079>082-252000-
SOUTHWEST NEBRASKA

CITY           SKY/WX    TMP DP  RH WIND       PRES   REMARKS
NORTH PLATTE   SUNNY     29  19  66 W12       29.94F WCI  19
IMPERIAL       SUNNY     32  17  54 W14       29.96F WCI  22
LEXINGTON      SUNNY     33  22  64 W14       29.97F WCI  23
MCCOOK         MOSUNNY   39  24  55 W15G23    29.96F WCI  31
OGALLALA       SUNNY     31  17  57 NW16G25   29.94F WCI  20
$$

NEZ005>010-023>029-035>040-094-252000-
NORTH CENTRAL NEBRASKA

CITY           SKY/WX    TMP DP  RH WIND       PRES   REMARKS
VALENTINE      SUNNY     23  13  65 W13       29.88F WCI  11
AINSWORTH      SUNNY     26  18  72 W10       29.88F WCI  16
BROKEN BOW     SUNNY     29  20  69 SW12      29.92F WCI  19
O`NEILL        SUNNY     28  18  66 SW18      29.93F WCI  15
ORD            SUNNY     30  18  60 SW13      29.95F WCI  20
THEDFORD       SUNNY     27  17  67 W9        29.90F WCI  17
$$

NEZ041-046>049-061>064-073>077-083>087-252000-
SOUTH CENTRAL NEBRASKA

CITY           SKY/WX    TMP DP  RH WIND       PRES   REMARKS
GRAND ISLAND   SUNNY     30  21  69 S14       30.01F WCI  19
AURORA         SUNNY     29  19  65 SW15      30.03F WCI  18
HASTINGS       SUNNY     30  19  63 SW14      30.03F WCI  19
HEBRON         SUNNY     32  22  67 SW12      30.09F WCI  23
HOLDREGE       PTSUNNY   36  25  64 SW14G23   29.97F WCI  27
KEARNEY *      SUNNY     30  19  64 S16       29.99F WCI  19
YORK           SUNNY     27  18  69 S12       30.06F WCI  16
$$

NEZ011>018-030>034-042>045-252000-
NORTHEAST NEBRASKA

CITY           SKY/WX    TMP DP  RH WIND       PRES   REMARKS
NORFOLK        SUNNY     25  13  60 S20       30.00F WCI  11
ALBION         SUNNY     30  16  56 S15       29.99F WCI  19
BLAIR          CLOUDY    27  17  66 SW8       30.08F WCI  19
FREMONT        CLOUDY    27  17  66 S8        30.09F WCI  19
TEKAMAH        CLOUDY    26  18  71 S9        30.09F WCI  17
WAYNE          MOSUNNY   27  15  60 S13       30.03F WCI  16
$$

NEZ050>053-065>068-078-088>093-252000-
SOUTHEAST NEBRASKA

CITY           SKY/WX    TMP DP  RH WIND       PRES   REMARKS
LINCOLN        MOSUNNY   28  17  63 SW7       30.12F WCI  21
OMAHA EPPLEY   CLOUDY    30  15  53 SW9       30.10F WCI  22
BEATRICE       SUNNY     33  18  55 SW8       30.11F WCI  26
FALLS CITY     SUNNY     33  17  51 VRB3      30.14F
NEBRASKA CITY  SUNNY     28  16  59 SW7       30.12F WCI  21
PLATTSMOUTH    MOSUNNY   28  14  56 S5        30.11F WCI  23
$$

NEZ044-045-051>053-067-252000-
OMAHA AREA

CITY           SKY/WX    TMP DP  RH WIND       PRES   REMARKS
OMAHA EPPLEY   CLOUDY    30  15  53 SW9       30.10F WCI  22
BLAIR          CLOUDY    27  17  66 SW8       30.08F WCI  19
FREMONT        CLOUDY    27  17  66 S8        30.09F WCI  19
MILLARD        CLOUDY    30  17  58 S7        30.11F WCI  23
OFFUTT AFB     MOSUNNY   29  15  57 VRB7      30.10F WCI  22
PLATTSMOUTH    MOSUNNY   28  14  56 S5        30.11F WCI  23
WAHOO          CLOUDY    27  17  64 S8        30.09F WCI  19
$$



USA.gov is the U.S. government's official web portal to all federal, state and local government web resources and services.